Zurück zum Katalog

GEESAT 3-10

AktivKommunikationLEO
NORAD 61020·PAYLOAD·🇨🇳 China

Gestartet Sep 5, 2024 von Taiyuan Satellite Launch Center

Loading…

Nächste Überflüge (nächste 24 Stunden)

TLE

AktuellSource: Space-Track

Epoche: Sep 14, 2026, 13:33 UTC

1 61020U 24159K   26257.56476614  .00001464  00000-0  19874-3 0  9998
2 61020  50.0007  28.5845 0003824  97.8266 262.3107 14.84494911109781

Verfolge GEESAT 3-10 in Echtzeit mit AllMySat

Download on the App Store